EW6338 Weather Reports


Display with metric or nautical units.
time (UTC)temp
F
wind
direction
speed
MPH
gust
MPH
rain 1hr
in
rain 24hr
in
rain mn
in
humidity
%
barometer
mb
20260506214600 60 234 0.0 3.0 0.05 0.16 0.16 94 1004.4
20260506213109 60 189 0.0 2.0 0.06 0.15 0.15 94 1004.8
20260506211558 60 202 0.0 4.0 0.08 0.14 0.14 93 1004.8
20260506210056 61 175 1.0 6.0 0.08 0.12 0.12 92 1004.9
20260506204556 61 226 0.0 4.0 0.08 0.11 0.11 91 1005.0
20260506203049 62 213 0.0 9.0 0.07 0.09 0.09 90 1004.8
20260506201550 62 217 0.0 3.0 0.05 0.06 0.06 88 1004.9
20260506200047 63 265 1.0 8.0 0.04 0.04 0.04 87 1004.8
20260506194546 64 235 0.0 5.0 0.03 0.03 0.03 85 1004.8
20260506193044 65 284 0.0 8.0 0.02 0.02 0.02 81 1004.9
20260506191549 66 160 0.0 6.0 0.01 0.01 0.01 76 1005.0
20260506190043 68 238 0.0 8.0 0.00 0.00 0.00 71 1005.1
20260506184553 70 101 0.0 4.0 0.00 0.00 0.00 68 1004.9
20260506183041 71 287 1.0 7.0 0.00 0.00 0.00 64 1004.9
20260506181542 71 181 3.0 12.0 0.00 0.00 0.00 63 1004.9
20260506180041 72 229 1.0 12.0 0.00 0.00 0.00 63 1005.2
20260506174537 72 258 2.0 9.0 0.00 0.00 0.00 62 1005.4
20260506173044 73 148 3.0 12.0 0.00 0.00 0.00 61 1005.2
20260506171548 73 213 2.0 12.0 0.00 0.00 0.00 63 1005.3
20260506170038 73 128 1.0 5.0 0.00 0.00 0.00 62 1005.6
20260506164531 72 184 2.0 9.0 0.00 0.00 0.00 60 1005.7
20260506163034 72 160 4.0 9.0 0.00 0.00 0.00 62 1005.9
20260506161525 72 287 0.0 7.0 0.00 0.00 0.00 63 1006.2
20260506160023 71 121 1.0 5.0 0.00 0.00 0.00 65 1006.5
20260506154520 71 233 1.0 6.0 0.00 0.00 0.00 66 1006.8
20260506153017 70 141 0.0 12.0 0.00 0.00 0.00 67 1007.0
20260506151522 71 266 1.0 11.0 0.00 0.00 0.00 66 1007.2
20260506150016 70 250 2.0 8.0 0.00 0.00 0.00 67 1007.4
20260506144516 71 139 2.0 7.0 0.00 0.00 0.00 67 1007.2
20260506143012 70 288 2.0 11.0 0.00 0.00 0.00 69 1007.1
20260506141509 68 265 1.0 7.0 0.00 0.00 0.00 72 1007.1
20260506140015 67 99 1.0 12.0 0.00 0.00 0.00 73 1007.3
20260506134504 67 299 3.0 10.0 0.00 0.00 0.00 74 1007.4
20260506133002 66 255 2.0 7.0 0.00 0.00 0.00 75 1007.8
20260506131617 66 226 2.0 6.0 0.00 0.00 0.00 76 1007.7
20260506130101 65 351 1.0 9.0 0.00 0.00 0.00 76 1007.7
20260506124558 65 278 3.0 11.0 0.00 0.00 0.00 76 1007.6
20260506123056 64 274 0.0 6.0 0.00 0.00 0.00 78 1007.9
20260506121557 63 156 0.0 4.0 0.00 0.00 0.00 79 1007.7
20260506120055 63 155 2.0 6.0 0.00 0.00 0.00 79 1008.0
20260506114555 63 19 0.0 6.0 0.00 0.00 0.00 80 1008.1
20260506113051 62 260 2.0 8.0 0.00 0.00 0.00 80 1008.3
20260506111551 62 261 0.0 6.0 0.00 0.00 0.00 81 1008.0
20260506110050 61 86 0.0 4.0 0.00 0.00 0.00 82 1008.2
20260506104554 61 199 1.0 4.0 0.00 0.00 0.00 81 1008.2
20260506103052 61 229 1.0 5.0 0.00 0.00 0.00 81 1008.2
20260506101547 61 219 0.0 4.0 0.00 0.00 0.00 81 1008.2
20260506094546 61 173 0.0 3.0 0.00 0.00 0.00 80 1007.9
20260506093043 61 281 0.0 4.0 0.00 0.00 0.00 80 1008.1
20260506091542 61 137 1.0 8.0 0.00 0.00 0.00 79 1008.1
20260506090040 61 158 0.0 5.0 0.00 0.00 0.00 78 1008.1
20260506084541 62 281 0.0 5.0 0.00 0.00 0.00 78 1008.1
20260506083036 62 245 0.0 4.0 0.00 0.00 0.00 77 1008.2
20260506081535 62 250 0.0 3.0 0.00 0.00 0.00 76 1008.0
20260506073030 63 188 0.0 5.0 0.00 0.00 0.00 73 1007.8
20260506071528 63 189 0.0 7.0 0.00 0.00 0.00 73 1007.7
20260506061524 64 68 0.0 5.0 0.00 0.00 0.00 69 1007.3
20260506044527 64 221 1.0 5.0 0.00 0.00 0.00 67 1007.8
20260506043015 64 136 1.0 6.0 0.00 0.00 0.00 67 1007.8
20260506041514 64 213 1.0 6.0 0.00 0.00 0.00 67 1007.9
20260506040013 64 129 0.0 6.0 0.00 0.00 0.00 66 1007.8
20260506034511 64 243 0.0 6.0 0.00 0.00 0.00 65 1007.9
20260506033009 65 254 0.0 3.0 0.00 0.00 0.00 64 1007.8
20260506031517 65 285 3.0 8.0 0.00 0.00 0.00 63 1007.8
20260506030024 66 261 2.0 7.0 0.00 0.00 0.00 62 1007.8
20260506024519 66 275 2.0 8.0 0.00 0.00 0.00 62 1007.9
20260506023008 66 233 0.0 8.0 0.00 0.00 0.00 61 1007.9
20260506021507 67 155 0.0 6.0 0.00 0.00 0.00 61 1007.9
20260506020006 67 288 0.0 1.0 0.00 0.00 0.00 61 1007.9
20260506014505 67 141 0.0 6.0 0.00 0.00 0.00 61 1007.8
20260506013005 67 265 1.0 5.0 0.00 0.00 0.00 60 1007.8
20260506011504 68 231 0.0 7.0 0.00 0.00 0.00 59 1007.1
20260506010006 68 297 2.0 6.0 0.00 0.00 0.00 58 1007.0
20260506004509 69 232 1.0 7.0 0.00 0.00 0.00 57 1006.7
20260506003002 69 257 1.0 9.0 0.00 0.00 0.00 56 1006.3
20260506001502 70 108 4.0 13.0 0.00 0.00 0.00 55 1005.9
20260506000001 71 96 2.0 7.0 0.00 0.00 0.00 55 1005.7
20260505234601 72 229 2.0 8.0 0.00 0.00 0.00 54 1005.4
20260505233125 72 195 1.0 8.0 0.00 0.00 0.00 53 1005.2
20260505231559 73 194 2.0 7.0 0.00 0.00 0.00 52 1005.1
20260505230058 74 165 1.0 6.0 0.00 0.00 0.00 51 1004.9
20260505224558 75 249 3.0 10.0 0.00 0.00 0.00 50 1004.7
20260505223056 75 269 5.0 19.0 0.00 0.00 0.00 50 1004.5
20260505221603 76 194 2.0 12.0 0.00 0.00 0.00 49 1004.0
20260505220055 77 205 3.0 14.0 0.00 0.00 0.00 47 1004.0